Temperature
7 8 8 8 8 6 6 6 7 7 7 9 7 4 4 3 2 0 -0 -1 -1 -2 -3 -3 -4 -4 -5 -5 -6 -6 -7 -7 -8 -9 -10 -11 -12 -12 -12 -12 -12 -12 -12 -11
8 8 7 6 6 6 6 6 5 6 8 7 5 4 3 2 1 1 0 -0 -1 -2 -3 -3 -4 -4 -5 -5 -6 -6 -7 -7 -8 -9 -10 -11 -11 -12 -12 -12 -12 -12 -12 -12
8 7 8 10 9 6 6 5 6 7 9 6 3 2 2 2 2 2 1 -0 -1 -2 -3 -3 -4 -4 -5 -5 -6 -6 -6 -7 -8 -9 -10 -11 -11 -12 -12 -12 -13 -13 -12 -12
6 9 13 13 10 8 8 7 5 6 6 6 5 4 4 4 4 2 1 -0 -1 -2 -3 -3 -4 -4 -5 -5 -6 -6 -6 -7 -8 -9 -10 -10 -11 -12 -12 -12 -13 -13 -13 -12
6 8 9 10 9 7 8 9 7 6 6 5 2 2 2 4 3 2 1 -0 -1 -2 -3 -3 -4 -4 -5 -5 -6 -6 -6 -7 -8 -9 -9 -10 -11 -11 -12 -12 -13 -13 -13 -13
5 10 11 13 8 8 9 9 10 8 7 2 -0 1 3 5 3 1 -0 -1 -1 -2 -3 -3 -4 -4 -5 -5 -6 -6 -6 -7 -8 -9 -9 -10 -10 -11 -12 -12 -13 -13 -13 -13
4 6 9 9 7 8 11 12 13 12 10 5 2 5 6 5 3 1 0 -1 -1 -2 -3 -3 -4 -4 -5 -5 -5 -6 -6 -7 -8 -9 -9 -10 -10 -10 -11 -12 -12 -12 -12 -13
3 5 8 9 6 7 12 14 13 12 11 10 9 6 5 5 3 1 0 -1 -1 -2 -2 -3 -4 -4 -4 -5 -5 -6 -6 -7 -8 -8 -9 -9 -10 -10 -10 -11 -11 -12 -12 -12
7 10 12 11 13 16 15 14 14 12 12 10 8 6 5 4 2 1 0 -0 -1 -2 -2 -3 -3 -4 -4 -5 -5 -6 -6 -7 -7 -8 -9 -9 -10 -10 -10 -10 -11 -11 -12 -12
4 7 10 12 14 15 14 14 14 12 10 10 9 7 5 4 2 1 0 -1 -1 -2 -2 -3 -3 -4 -4 -5 -5 -6 -6 -6 -7 -7 -8 -8 -9 -10 -10 -10 -11 -11 -11 -11
5 7 11 15 17 18 17 16 14 13 10 9 8 7 6 4 3 2 1 -0 -1 -2 -2 -3 -3 -4 -4 -5 -5 -6 -6 -6 -7 -7 -7 -8 -8 -9 -9 -10 -11 -11 -11 -11
12 14 12 17 18 17 16 15 14 13 11 9 7 7 6 5 3 2 1 -0 -1 -2 -2 -3 -3 -4 -4 -5 -5 -5 -6 -6 -6 -7 -7 -7 -7 -7 -8 -9 -10 -10 -11 -11
18 19 17 18 17 17 16 15 13 12 11 9 7 6 5 4 3 2 1 0 -1 -1 -2 -3 -3 -4 -4 -5 -5 -5 -6 -6 -6 -7 -7 -7 -7 -7 -7 -7 -8 -10 -10 -10
18 17 16 17 17 16 14 13 12 11 10 8 7 6 5 4 3 2 1 1 -1 -2 -2 -3 -3 -3 -4 -4 -5 -5 -6 -6 -6 -6 -6 -7 -7 -7 -7 -8 -8 -8 -10 -11
16 16 17 17 16 15 13 12 12 11 10 8 6 5 5 4 3 2 1 -0 -1 -2 -2 -2 -3 -3 -4 -4 -5 -5 -5 -6 -6 -6 -6 -6 -6 -6 -7 -7 -8 -8 -9 -10
16 16 16 16 16 15 13 12 11 11 10 8 7 5 5 4 3 2 1 -0 -0 -1 -1 -2 -3 -3 -4 -4 -4 -5 -5 -5 -5 -5 -5 -6 -6 -6 -6 -6 -7 -8 -9 -11
14 15 15 16 17 16 15 14 13 12 10 9 7 6 4 3 2 1 1 0 -0 -1 -2 -2 -3 -3 -3 -4 -4 -5 -5 -5 -5 -5 -5 -5 -5 -6 -6 -6 -7 -7 -8 -10
16 17 17 17 17 16 15 13 12 11 10 9 7 5 4 3 3 2 1 0 -1 -1 -1 -2 -2 -3 -3 -4 -4 -4 -5 -5 -5 -5 -5 -5 -5 -6 -6 -6 -6 -7 -7 -8
18 18 19 19 18 16 15 14 12 11 10 9 7 5 5 4 4 2 1 0 -0 -0 -0 -1 -2 -3 -3 -3 -4 -4 -5 -5 -5 -5 -5 -5 -6 -6 -6 -6 -7 -7 -7 -8
18 19 19 19 19 18 17 15 13 11 10 9 7 6 4 4 3 2 1 1 1 1 -0 -2 -2 -2 -3 -3 -4 -4 -4 -5 -5 -5 -5 -6 -6 -6 -6 -6 -7 -7 -7 -8
18 19 19 20 20 19 18 16 13 12 11 9 8 6 5 4 3 2 1 1 1 -0 -1 -2 -2 -2 -3 -3 -4 -4 -4 -4 -5 -5 -5 -6 -6 -6 -7 -7 -7 -7 -7 -8
19 19 20 20 20 19 18 16 14 12 10 9 8 6 5 4 3 3 2 2 2 0 -1 -1 -1 -2 -3 -3 -3 -4 -4 -4 -5 -5 -5 -6 -6 -6 -7 -7 -7 -8 -8 -8
18 19 19 20 20 19 16 15 14 12 11 10 8 7 5 4 4 3 2 2 1 -0 -1 -1 -1 -2 -3 -3 -3 -4 -4 -4 -5 -5 -5 -6 -6 -7 -7 -7 -8 -8 -8 -8
15 17 18 18 17 15 15 15 13 12 10 9 8 7 6 4 4 3 3 3 1 0 -0 -1 -2 -2 -2 -3 -3 -3 -4 -4 -5 -5 -6 -6 -6 -7 -7 -8 -8 -8 -8 -9
11 12 13 13 13 15 15 14 12 11 9 8 7 6 5 5 5 4 3 2 1 0 -0 -1 -2 -2 -2 -2 -3 -3 -4 -4 -5 -5 -6 -6 -6 -7 -7 -8 -8 -8 -9 -9
10 10 10 10 11 11 12 12 12 11 9 8 7 6 5 4 4 4 3 2 1 0 -0 -1 -2 -2 -2 -2 -3 -3 -4 -4 -5 -5 -6 -6 -7 -7 -7 -8 -8 -9 -9 -9
10 9 9 9 10 10 10 10 11 11 10 9 8 7 5 4 4 3 2 2 1 0 -0 -1 -2 -2 -2 -2 -3 -3 -4 -4 -5 -5 -6 -6 -7 -7 -8 -8 -8 -9 -9 -9
Wind_Speed
8 6 4 7 9 9 10 10 10 11 11 19 11 8 9 10 10 10 8 8 7 5 3 4 5 5 6 6 7 7 7 8 9 9 10 10 11 11 11 11 13 13 15 16
6 3 4 7 11 10 11 8 10 12 19 14 4 1 7 11 13 11 9 9 8 6 5 5 5 5 6 6 7 6 7 7 9 10 10 10 11 11 12 12 12 13 13 15
5 6 7 9 9 10 8 10 11 11 11 3 3 6 9 13 14 11 9 8 9 7 6 5 5 5 5 6 6 7 7 7 8 9 10 11 12 12 12 10 10 12 12 13
3 8 6 7 1 7 8 10 12 11 12 7 6 3 5 9 13 11 11 10 9 8 6 5 4 3 4 5 5 6 7 7 8 8 9 10 10 11 11 8 9 8 10 13
1 4 10 11 4 6 6 10 9 13 15 2 4 2 4 7 10 11 11 9 8 7 6 5 4 3 3 4 5 6 7 7 8 8 8 9 9 10 8 8 8 8 9 11
4 2 7 8 3 5 3 8 8 10 8 8 9 3 6 10 10 10 9 8 8 7 6 5 4 2 2 4 5 6 7 7 8 7 8 9 9 8 7 8 9 10 11 10
6 7 11 7 6 6 2 8 4 8 9 13 13 8 3 13 10 9 8 8 8 8 7 6 4 3 3 4 5 6 7 7 7 7 8 8 7 7 8 9 10 10 11 11
7 6 10 7 10 11 12 4 5 7 9 12 10 5 9 13 13 13 10 9 8 8 7 6 5 4 4 5 5 6 6 7 7 8 8 8 8 8 8 9 10 10 9 10
12 11 6 12 13 10 5 7 8 7 9 11 10 10 12 11 12 12 12 10 8 8 7 6 5 5 5 5 5 6 6 7 7 8 8 7 7 8 8 8 8 9 8 9
8 15 12 13 13 12 10 10 8 9 10 14 12 14 14 14 13 12 12 11 9 9 8 7 6 6 6 5 5 5 6 7 7 7 8 8 8 7 7 8 9 8 7 9
9 12 11 11 15 18 14 11 9 9 11 15 15 14 15 15 15 14 13 11 10 10 9 8 7 6 5 5 4 5 6 6 6 7 7 7 8 6 8 7 11 12 8 8
13 12 9 10 7 8 10 12 13 12 10 10 14 17 16 15 14 14 13 12 10 10 9 8 7 6 6 5 4 4 5 6 5 6 6 7 8 9 13 13 17 18 18 17
15 9 9 11 6 7 9 10 12 15 14 13 12 14 17 12 14 14 13 13 13 12 10 8 7 7 6 5 4 5 5 6 5 6 6 7 7 8 10 12 16 17 19 21
14 6 9 10 10 10 9 7 10 10 10 11 13 13 15 11 13 15 15 14 12 10 9 8 8 8 7 5 5 5 5 6 6 5 5 5 6 7 8 10 11 10 14 20
17 16 15 9 3 5 6 7 9 11 11 11 10 14 17 16 17 16 13 12 11 10 9 9 9 8 6 5 5 5 4 4 4 4 4 4 5 6 7 8 9 9 9 12
10 12 13 13 14 10 9 10 13 15 15 15 14 16 16 15 14 13 13 14 13 14 12 11 11 8 7 6 5 4 4 6 6 4 4 4 4 5 6 7 8 8 9 10
11 13 12 13 16 14 16 16 17 17 17 18 18 16 14 13 12 13 14 14 12 11 11 11 10 8 7 6 5 4 3 4 6 4 3 4 4 4 5 6 7 8 8 12
20 23 18 15 13 15 17 17 16 16 17 17 16 16 18 19 19 17 15 13 10 8 9 10 9 8 7 6 5 4 3 3 2 3 3 4 4 4 5 5 6 7 8 9
22 23 21 18 15 13 14 17 18 17 16 17 19 20 20 19 16 15 15 14 14 14 12 11 15 11 8 9 8 4 4 3 3 2 3 5 5 4 5 5 6 6 7 8
21 21 20 18 14 14 15 13 15 16 17 19 19 18 17 16 15 16 17 16 15 10 9 12 13 10 10 9 9 5 5 4 3 2 2 3 4 4 5 5 6 6 6 7
20 20 19 18 17 15 15 15 17 19 19 20 22 22 20 17 17 16 16 15 13 10 10 15 12 10 9 10 10 6 5 5 4 3 2 3 3 4 4 5 6 6 7 7
21 20 21 18 16 15 14 15 16 18 19 20 19 18 18 18 18 15 15 11 11 18 13 10 10 13 14 14 7 7 6 6 5 4 3 3 3 3 4 5 5 6 6 7
19 18 17 16 15 12 11 14 17 19 21 22 22 22 21 19 17 17 15 11 10 19 15 11 15 20 20 12 8 8 7 6 6 5 4 4 3 3 4 4 5 5 6 6
14 12 10 8 11 13 16 17 16 15 16 16 17 18 18 16 14 13 6 18 21 21 14 16 22 22 20 9 9 8 8 7 6 5 5 4 4 3 4 4 4 5 5 7
7 4 5 10 13 13 13 13 14 13 14 12 13 15 15 13 12 14 12 16 24 22 13 17 24 23 15 9 10 9 8 8 7 6 6 5 4 4 4 4 4 5 5 6
4 5 7 9 8 7 10 13 13 13 14 14 14 14 13 10 9 12 13 14 19 21 15 12 14 17 11 11 10 10 9 8 8 7 7 6 5 5 4 4 5 4 5 6
4 4 5 6 7 8 10 12 14 15 16 16 15 15 15 14 13 14 15 14 15 15 13 12 12 12 11 11 10 9 8 8 7 6 6 6 5 5 5 5 5 6 7 8
Wind_Direction
258 260 238 242 226 192 196 206 217 248 257 277 286 240 207 176 165 164 171 179 179 185 224 261 282 295 303 309 317 327 330 330 329 326 325 327 330 330 332 338 342 339 341 342
292 213 258 265 241 213 219 221 237 265 275 274 311 135 158 167 174 180 185 186 183 190 212 240 265 287 303 310 317 324 328 327 327 330 331 332 332 334 337 339 338 339 339 340
285 301 316 278 236 188 206 209 199 231 256 235 244 211 193 186 185 186 183 181 183 191 209 229 248 271 290 303 314 325 325 324 328 329 331 332 336 337 336 331 332 335 335 337
301 349 273 249 107 175 213 243 216 240 261 243 241 212 202 185 183 181 178 177 180 184 199 217 234 263 286 307 321 324 323 324 324 326 326 327 332 333 328 321 327 327 326 332
107 307 284 296 235 179 206 279 226 229 256 187 107 65 265 205 184 179 174 170 174 180 189 198 223 258 295 315 322 323 322 320 318 318 321 325 330 327 320 319 319 321 324 328
141 221 259 259 151 163 102 288 249 208 221 158 146 208 251 182 166 157 155 155 163 172 180 195 214 233 275 305 313 314 312 310 310 313 320 318 320 318 316 319 321 329 329 327
177 227 263 251 152 146 178 254 233 193 190 171 192 210 175 150 151 152 151 157 163 172 186 197 200 208 252 284 291 297 304 307 310 315 315 310 318 313 318 323 324 320 318 319
162 201 255 196 148 186 220 223 192 198 190 190 192 142 145 155 156 157 158 161 168 177 192 197 194 200 245 268 280 298 306 309 311 312 314 324 319 312 315 317 317 312 310 316
194 217 240 180 203 221 209 215 212 203 197 173 165 171 165 166 164 166 168 173 176 182 189 199 200 202 238 261 290 307 312 310 309 312 311 313 311 309 314 313 313 314 318 324
240 261 248 226 239 248 226 226 222 198 178 171 176 174 171 170 172 173 175 181 180 181 191 205 208 214 230 263 289 302 306 306 307 310 313 316 319 318 317 316 316 318 324 324
247 269 288 260 232 240 237 228 216 191 183 182 173 172 174 175 178 179 181 182 185 190 198 204 203 220 235 251 275 294 301 303 310 315 310 316 321 315 319 315 328 342 334 326
235 229 215 255 229 207 211 215 202 185 184 183 179 178 174 178 178 178 179 180 187 194 199 200 202 220 232 239 251 279 299 309 311 311 317 322 321 324 332 339 340 345 347 345
234 243 224 254 245 193 209 213 193 189 184 184 181 176 173 173 176 176 178 183 191 195 197 194 200 218 226 229 246 264 280 295 300 313 319 324 327 332 333 336 342 346 349 348
242 255 279 255 237 213 206 197 179 185 184 177 171 171 171 163 169 178 185 189 188 186 188 191 202 219 219 218 240 263 277 295 306 301 308 315 321 327 333 335 336 337 342 346
234 221 232 256 235 182 168 153 168 185 179 173 168 170 171 173 179 185 181 175 176 184 193 196 209 220 207 207 231 255 275 281 287 297 310 313 317 326 333 335 335 335 334 339
223 222 234 246 242 206 180 186 195 198 190 182 180 182 182 179 175 171 169 172 178 195 199 201 212 211 192 199 223 247 267 300 318 328 328 322 318 326 334 337 337 337 338 334
217 235 227 236 235 214 205 205 206 200 191 190 189 180 169 162 163 172 179 184 191 196 195 200 207 198 189 194 206 227 249 289 318 330 320 311 310 327 329 332 334 336 334 335
224 236 231 227 228 214 212 209 207 197 193 192 176 168 171 177 183 184 181 177 183 197 206 203 196 187 189 193 200 211 222 245 275 294 302 304 320 330 324 323 327 330 331 340
232 239 242 236 225 205 204 204 205 198 186 174 174 180 184 186 183 175 168 173 188 206 213 200 202 195 196 204 202 193 201 227 257 283 296 315 336 324 319 319 323 324 329 343
238 239 242 240 220 206 205 192 187 188 182 177 178 181 184 183 174 169 173 187 200 199 176 183 195 193 192 201 200 178 192 209 225 253 284 300 309 314 317 321 324 324 331 341
236 236 236 234 224 208 197 183 181 185 181 179 183 186 184 179 174 171 179 198 203 178 174 188 186 188 187 194 198 180 189 198 206 216 247 280 299 310 318 322 327 331 336 339
231 232 233 227 213 203 190 182 181 179 178 183 186 181 176 175 177 182 194 197 179 182 181 185 182 189 190 192 179 179 187 193 198 203 218 244 271 295 308 316 319 324 328 326
231 229 226 215 202 187 170 179 181 180 183 185 185 184 183 181 181 185 197 194 168 181 180 185 189 192 193 187 177 183 187 191 195 201 210 222 241 264 286 301 307 312 312 314
251 240 221 179 154 163 183 189 184 184 184 185 187 185 180 178 187 196 176 175 179 182 182 189 191 194 192 179 178 184 188 191 193 198 205 215 227 244 263 280 291 298 303 310
273 244 176 170 186 197 192 173 171 172 175 184 187 186 187 183 181 184 171 171 179 180 180 189 191 193 188 175 181 185 188 193 194 195 202 209 218 231 248 264 279 291 299 303
234 217 210 208 207 192 175 175 181 183 182 185 188 188 188 180 163 166 169 172 176 179 177 180 185 191 183 181 184 185 187 198 209 202 194 201 212 221 235 251 272 277 288 296
244 222 208 209 206 191 184 186 188 188 187 185 183 182 181 178 171 169 170 172 177 180 177 178 181 183 181 182 183 183 185 189 194 194 194 200 206 214 221 237 256 275 287 294
Height
1596 1593 1593 1591 1589 1593 1595 1592 1592 1578 1571 1551 1548 1549 1549 1551 1555 1558 1560 1562 1563 1563 1562 1561 1559 1557 1554 1550 1546 1541 1536 1530 1524 1519 1513 1508 1502 1496 1490 1484 1479 1473 1467 1461
1593 1589 1591 1589 1582 1585 1586 1585 1582 1575 1563 1545 1545 1545 1545 1547 1550 1553 1556 1558 1559 1560 1559 1558 1556 1554 1552 1548 1544 1540 1535 1530 1524 1519 1513 1507 1502 1496 1491 1485 1479 1473 1468 1462
1597 1590 1586 1578 1565 1572 1572 1570 1568 1565 1550 1543 1544 1543 1542 1543 1545 1548 1552 1554 1555 1556 1556 1555 1554 1552 1549 1546 1543 1539 1534 1529 1524 1518 1513 1507 1502 1496 1491 1485 1479 1474 1469 1463
1602 1592 1578 1559 1557 1558 1559 1556 1555 1550 1542 1541 1541 1540 1539 1540 1542 1545 1548 1550 1551 1552 1552 1552 1551 1550 1547 1545 1542 1538 1533 1528 1523 1518 1513 1507 1502 1496 1491 1485 1480 1474 1469 1464
1603 1596 1582 1559 1555 1557 1557 1551 1541 1542 1536 1538 1537 1538 1536 1537 1539 1542 1545 1547 1548 1548 1549 1549 1548 1547 1545 1543 1540 1537 1532 1528 1523 1518 1513 1507 1501 1496 1491 1485 1480 1475 1470 1465
1604 1591 1581 1554 1553 1553 1555 1552 1533 1533 1532 1534 1537 1541 1532 1531 1535 1538 1541 1543 1544 1545 1545 1546 1546 1545 1543 1541 1539 1535 1531 1527 1522 1518 1513 1508 1502 1496 1491 1486 1480 1475 1470 1465
1602 1596 1572 1550 1550 1553 1557 1542 1529 1527 1527 1528 1528 1528 1527 1528 1531 1534 1537 1539 1541 1542 1542 1543 1543 1542 1541 1539 1537 1534 1530 1526 1522 1518 1513 1508 1503 1498 1492 1486 1481 1475 1470 1465
1596 1595 1568 1543 1546 1546 1534 1524 1523 1522 1522 1521 1521 1522 1523 1525 1527 1531 1533 1535 1537 1538 1539 1540 1540 1540 1539 1537 1535 1532 1529 1525 1522 1518 1513 1508 1503 1498 1493 1486 1480 1475 1469 1463
1563 1548 1532 1529 1526 1522 1521 1519 1518 1517 1517 1517 1516 1517 1519 1522 1524 1527 1530 1532 1534 1535 1536 1537 1537 1537 1536 1535 1533 1531 1528 1525 1521 1518 1513 1508 1503 1497 1492 1486 1480 1474 1469 1463
1551 1531 1522 1521 1519 1517 1515 1514 1513 1512 1512 1511 1511 1512 1515 1518 1520 1523 1526 1529 1530 1532 1532 1533 1534 1534 1534 1533 1531 1529 1527 1524 1520 1517 1513 1508 1503 1498 1492 1486 1480 1476 1470 1464
1539 1522 1516 1510 1509 1508 1508 1507 1506 1505 1505 1505 1506 1507 1510 1513 1516 1519 1522 1525 1527 1528 1529 1530 1530 1531 1531 1530 1529 1528 1525 1523 1519 1516 1511 1507 1503 1498 1492 1487 1483 1479 1472 1467
1519 1508 1509 1504 1503 1502 1501 1500 1500 1499 1497 1498 1500 1502 1505 1508 1511 1514 1518 1521 1523 1525 1526 1527 1527 1528 1528 1528 1527 1525 1524 1521 1518 1515 1510 1506 1501 1497 1494 1489 1483 1479 1474 1469
1501 1500 1500 1497 1496 1494 1494 1494 1493 1492 1491 1492 1494 1498 1501 1503 1506 1510 1513 1516 1519 1521 1522 1523 1524 1524 1525 1525 1524 1523 1521 1519 1516 1513 1509 1505 1500 1495 1490 1487 1484 1478 1473 1469
1495 1496 1493 1489 1488 1487 1487 1487 1486 1486 1486 1487 1490 1492 1495 1498 1501 1504 1508 1512 1515 1517 1519 1519 1520 1521 1522 1522 1522 1521 1519 1517 1515 1512 1508 1504 1500 1495 1490 1485 1480 1476 1472 1468
1485 1487 1485 1483 1481 1479 1478 1478 1478 1478 1478 1480 1483 1486 1489 1492 1495 1499 1504 1508 1510 1512 1514 1515 1516 1518 1518 1519 1519 1518 1517 1515 1513 1511 1508 1504 1500 1496 1491 1486 1481 1475 1471 1466
1475 1477 1476 1474 1471 1469 1469 1468 1469 1469 1470 1472 1475 1478 1483 1487 1491 1495 1498 1501 1504 1507 1510 1511 1513 1514 1515 1515 1516 1515 1515 1513 1511 1509 1507 1504 1500 1496 1492 1487 1481 1476 1471 1465
1466 1464 1464 1462 1460 1459 1458 1459 1460 1460 1462 1463 1467 1472 1477 1481 1484 1488 1492 1496 1500 1503 1506 1507 1509 1510 1511 1512 1512 1513 1512 1511 1510 1508 1505 1503 1500 1496 1492 1488 1483 1477 1472 1467
1451 1450 1452 1452 1450 1448 1447 1448 1450 1450 1452 1456 1461 1464 1468 1471 1475 1479 1485 1490 1494 1497 1499 1502 1504 1506 1507 1508 1509 1509 1509 1508 1507 1506 1504 1502 1500 1497 1493 1489 1484 1479 1474 1468
1439 1439 1440 1439 1438 1437 1437 1437 1438 1441 1443 1447 1450 1454 1459 1464 1469 1474 1479 1483 1486 1489 1494 1497 1499 1501 1503 1504 1505 1506 1506 1506 1505 1504 1503 1501 1499 1496 1493 1489 1485 1480 1475 1469
1428 1429 1429 1428 1427 1425 1425 1426 1429 1431 1433 1436 1441 1446 1451 1456 1462 1466 1471 1474 1478 1484 1489 1492 1494 1496 1498 1500 1501 1502 1502 1503 1502 1502 1501 1500 1498 1496 1493 1489 1485 1481 1476 1471
1417 1417 1417 1416 1414 1413 1413 1415 1417 1419 1422 1426 1429 1433 1440 1448 1453 1458 1463 1467 1472 1478 1482 1485 1488 1491 1493 1495 1496 1497 1498 1499 1499 1499 1499 1498 1497 1495 1492 1489 1485 1480 1476 1471
1404 1404 1404 1403 1400 1399 1400 1403 1406 1409 1412 1416 1420 1426 1433 1438 1444 1449 1454 1459 1466 1471 1475 1478 1482 1485 1488 1490 1491 1493 1494 1495 1496 1496 1496 1496 1495 1493 1490 1487 1484 1480 1476 1471
1389 1389 1389 1388 1385 1385 1388 1392 1395 1398 1401 1405 1409 1414 1420 1426 1433 1439 1444 1451 1458 1464 1468 1472 1476 1480 1482 1484 1486 1488 1490 1491 1492 1493 1493 1493 1492 1491 1489 1486 1483 1479 1475 1471
1378 1377 1375 1373 1372 1374 1377 1380 1384 1388 1392 1398 1403 1408 1413 1419 1426 1433 1439 1445 1451 1456 1460 1466 1470 1473 1476 1478 1481 1483 1485 1487 1488 1489 1490 1490 1489 1488 1486 1484 1481 1478 1474 1470
1371 1369 1367 1365 1364 1365 1368 1372 1375 1379 1384 1389 1394 1399 1405 1411 1418 1424 1431 1437 1443 1449 1453 1459 1463 1466 1469 1472 1475 1477 1480 1482 1483 1485 1485 1486 1486 1485 1483 1481 1479 1476 1472 1468
1362 1361 1359 1358 1359 1361 1361 1363 1365 1368 1372 1378 1383 1389 1395 1403 1411 1418 1424 1430 1436 1441 1446 1451 1455 1459 1462 1466 1469 1472 1474 1476 1478 1480 1481 1482 1482 1481 1480 1478 1476 1473 1470 1467
1355 1353 1351 1350 1349 1350 1352 1353 1355 1358 1362 1367 1372 1378 1385 1392 1400 1407 1415 1421 1427 1432 1438 1443 1448 1452 1456 1460 1463 1466 1468 1471 1473 1475 1476 1477 1477 1477 1476 1475 1473 1470 1468 1464